Regional Weather Roundup
Issued by NWS

Home | Current Version | Previous Version | Graphics & Text | Print | Product List | Glossary On
Versions: 1 2 3 4 5 6 7 8 9 10 11 12 13 14 15 16 17 18 19 20 21 22 23 24 25 26 27 28 29 30 31 32 33 34 35 36 37 38 39 40 41 42 43 44 45 46 47 48 49 50
000
ASUS43 KLOT 212110
RWRIL

ILLINOIS REGIONAL WEATHER ROUNDUP
NATIONAL WEATHER SERVICE CHICAGO/ROMEOVILLE IL
300 PM CST SUN DEC 21 2014

NOTE: "FAIR" INDICATES FEW OR NO CLOUDS BELOW 12,000 FEET WITH NO
SIGNIFICANT WEATHER AND/OR OBSTRUCTIONS TO VISIBILITY.

* THESE STATIONS ARE NOT UNDER NWS QUALITY CONTROL. THEY ALSO MAY NOT
  REPORT WEATHER SUCH AS PRECIPITATION OR FOG.

ILZ001-002-007-009-015-016-024-212200-
NORTHWEST ILLINOIS

CITY           SKY/WX    TMP DP  RH WIND       PRES   REMARKS
MOLINE         CLOUDY    40  33  76 S14       29.97F
STERLING*      CLOUDY    37  30  75 S10       30.02F WCI  30
SAVANNA*       CLOUDY    39  33  80 SE12      29.99F WCI  31
$$

ILZ003-004-008-010-011-017-018-212200-
NORTH CENTRAL ILLINOIS

CITY           SKY/WX    TMP DP  RH WIND       PRES   REMARKS
ROCKFORD       CLOUDY    37  31  78 S14       30.05S WCI  28
FREEPORT*      CLOUDY    37  32  84 S17       30.02S WCI  27
ROCHELLE*      CLOUDY    36  32  87 S12       30.04F FOG     WCI  27
DE KALB*       CLOUDY    35  31  85 S12       30.05S WCI  27
PERU*          CLOUDY    38  32  77 S17       30.05F WCI  29
$$

ILZ005-006-012>014-019>023-212200-
NORTHEAST ILLINOIS

CITY           SKY/WX    TMP DP  RH WIND       PRES   REMARKS
CHICAGO-OHARE  CLOUDY    36  28  73 S14       30.08F WCI  27
CHICAGO-MIDWAY CLOUDY    38  29  70 S12       30.10F WCI  30
AURORA         CLOUDY    38  30  73 S15       30.07S HAZE    WCI  29
LANSING*       CLOUDY    36  29  76 S10       30.12S WCI  28
JOLIET*        CLOUDY    37  30  77 S8        30.09F WCI  30
WAUKEGAN       CLOUDY    37  29  72 S10       30.07R WCI  30
DUPAGE AIRPORT CLOUDY    37  30  75 S14       30.06F WCI  28
KANKAKEE*      PTSUNNY   38  31  77 S12       30.11F WCI  30
WHEELING       CLOUDY    37  28  70 S12       30.09F WCI  29
MORRIS*        CLOUDY    38  32  80 S12G17    30.07F WCI  30
ROMEOVILLE*    CLOUDY    37  30  77 S13       30.09S WCI  28
NORTHERLY ISL    N/A     37  28  70 S8          N/A  WCI  31
$$

LMZ740>746-212200-
SOUTHERN LAKE MICHIGAN

STATION/POSITION SKY/WX   TEMP    WIND        PRES    VSBY  WAVE
                          AIR SEA DIR/SP/G                  HT/PER
                          (F)     (DEG/KT/KT) (MB)    (MI)  (FT/S)
WAUKEGAN HARBOR            36     180/ 16/ 18   N/A
HARRISON CRIB              35     160/ 15/ 18   N/A
BURNHAM HARBOR             37     160/  9/ 12   N/A
CALUMET HARBOR             36     150/ 10/ 14 1018.3S
$$

ILZ025>027-034>036-040-047-049-050-058-095>099-212200-
WEST-CENTRAL ILLINOIS

CITY           SKY/WX    TMP DP  RH WIND       PRES   REMARKS
QUINCY         CLOUDY    43  34  70 S17       29.96F
GALESBURG*     CLOUDY    39  34  81 SE8G17    29.99S WCI  34
MACOMB*        CLOUDY    41  35  79 S18       30.01F
JACKSONVILLE*  PTSUNNY   42  34  73 SE14      30.03S
PITTSFIELD*    CLOUDY    42  36  79 SE12      30.00F
$$

ILZ028>032-037-038-041>044-048-051>054-059>061-212200-
CENTRAL ILLINOIS

CITY           SKY/WX    TMP DP  RH WIND       PRES   REMARKS
PONTIAC        CLOUDY    38  32  78 S12       30.09S WCI  31
BLOOMINGTON    CLOUDY    36  31  82 S13       30.07F WCI  27
DECATUR        CLOUDY    39  32  76 SE10      30.08F WCI  32
PEORIA         CLOUDY    39  30  70 S16G26    30.04S WCI  30
LACON*         CLOUDY    38  30  74 S10       30.05R WCI  30
LINCOLN*       CLOUDY    37  32  83 SE12      30.08S WCI  29
SPRINGFIELD    CLOUDY    40  31  70 S14       30.06F
TAYLORVILLE    PTSUNNY   37  32  81 S10       30.07F WCI  30
$$

ILZ033-039-045-046-055>057-062-063-212200-
EAST-CENTRAL ILLINOIS

CITY           SKY/WX    TMP DP  RH WIND       PRES   REMARKS
CHAMPAIGN      PTSUNNY   39  30  70 SE10      30.10F WCI  32
DANVILLE*      MOSUNNY   38  30  73 SE6       30.08F WCI  34
RANTOUL*       CLOUDY    38  33  80 S6        30.10F WCI  34
MATTOON        PTSUNNY   40  28  62 SE9       30.09F
PARIS*         MOSUNNY   39  32  73 SE8       30.12F WCI  34
$$

ILZ079-100>102-212200-
SOUTHWEST ILLINOIS

CITY           SKY/WX    TMP DP  RH WIND       PRES   REMARKS
BELLEVILLE     CLOUDY    43  32  63 SE9       30.06F
CAHOKIA*       CLOUDY    44  33  65 SE10      30.05F
SPARTA*        CLOUDY    42  31  65 SE8       30.07F
$$

ILZ064>066-069>071-074>076-080>082-084>086-088>090-092>094-212200-
SOUTH-CENTRAL ILLINOIS

CITY           SKY/WX    TMP DP  RH WIND       PRES   REMARKS
CARBONDALE     PTSUNNY   45  30  55 E6        30.08F
CAIRO*         SUNNY     51  34  52 CALM      30.07F
EFFINGHAM*     MOSUNNY   41  27  56 SE12      30.11F
MARION         MOSUNNY   48  32  53 E9        30.08F
MT. VERNON     MOSUNNY   45  28  53 SE7       30.09F
CENTRALIA*     MOSUNNY   43  28  56 SE8       30.08F
SALEM*         MOSUNNY   45  29  53 E7        30.09F
METROPOLIS*    SUNNY     49  34  55 E6        30.07F
$$

ILZ067-068-072-073-078-083-087-091-212200-
SOUTHEAST ILLINOIS

CITY           SKY/WX    TMP DP  RH WIND       PRES   REMARKS
LAWRENCEVILLE  PTSUNNY   40  31  70 E9        30.14F
FLORA*         PTSUNNY   42  31  65 SE6       30.11F
FAIRFIELD*     PTSUNNY   43  30  61 E7        30.09F
HARRISBURG*    MOSUNNY   45  32  60 E7        30.10F
ROBINSON*      MOSUNNY   39  30  70 SE7       30.14F WCI  34
CARMI*         MOSUNNY   46  33  59 E7        30.10F
$$

ABBREVIATIONS USED IN REMARKS
   TC - TEMPERATURE IN CELSIUS
  WCI - WIND CHILL INDEX
   HX - HEAT INDEX
  VSB - VISIBILITY
$$




USA.gov is the U.S. government's official web portal to all federal, state and local government web resources and services.